Date String (YYYY-MM-DD hh:mm:ss) UTC,Instrument flags,absolute air pressure of the measurement (hPa),sample flow rate (lpm),inlet stack bypass flow (lpm),air temperature of the measurement (°C),ambient temperature measured by the external sensor (°C),aerosol sample conditioner tube jacket temperature (°C),OPC LED temperature (°C),internal box temperature (°C),relative humidity of the measurement (%),span deviation,mass concentration of particles derived from Lorenz-Mie calculation of OPC scattering (μg/m³),mass concentration of particles derived from Lorenz-Mie calculation of OPC scattering (μg/m³),mass concentration of particles derived from Lorenz-Mie calculation of OPC scattering (μg/m³)
DateTimeUTC,F1_M11,P_M11,Q1_M11,Q2_M11,T1_M11,T2_M11,T3_M11,T4_M11,T5_M11,U1_M11,ZSPAN_M11,X0_M11,X2_M11,X1_M11
2024-05-01 05:00:00,SystemResetWarning,0827.5,4.99,000.00,025.7,025.0,000.0,034.3,027.6,012.5,0000.0,0009.84,0003.66,0002.31
2024-05-01 05:01:00,SystemResetWarning,0827.5,4.99,000.00,025.8,025.0,000.0,034.3,027.6,012.7,0000.0,0009.95,0003.72,0002.32
2024-05-01 05:02:00,SystemResetWarning,0827.6,5.01,000.00,025.7,025.0,000.0,034.3,027.6,012.9,0000.0,0009.94,0003.72,0002.34
2024-05-01 05:03:00,SystemResetWarning,0827.7,5.01,000.00,025.7,025.0,000.0,034.3,027.6,012.9,0000.0,0009.43,0003.67,0002.36
2024-05-01 05:04:00,SystemResetWarning,0827.7,4.98,000.00,025.8,024.9,000.0,034.3,027.6,012.6,0000.0,0008.87,0003.69,0002.39
2024-05-01 05:05:00,SystemResetWarning,0827.7,5.00,000.00,025.7,024.9,000.0,034.3,027.6,012.4,0000.0,0009.05,0003.76,0002.41
2024-05-01 05:06:00,SystemResetWarning,0827.7,5.00,000.00,025.7,024.9,000.0,034.3,027.6,012.4,0000.0,0009.22,0003.77,0002.43
2024-05-01 05:07:00,SystemResetWarning,0827.7,5.01,000.00,025.7,024.9,000.0,034.3,027.6,012.4,0000.0,0009.33,0003.80,0002.42
2024-05-01 05:08:00,SystemResetWarning,0827.7,4.99,000.00,025.7,024.9,000.0,034.3,027.6,012.4,0000.0,0009.29,0003.79,0002.42
2024-05-01 05:09:00,SystemResetWarning,0827.6,5.00,000.00,025.7,025.0,000.0,034.3,027.6,012.3,0000.0,0009.58,0003.76,0002.42
2024-05-01 05:10:00,SystemResetWarning,0827.4,5.00,000.00,025.8,025.0,000.0,034.3,027.6,011.9,0000.0,0009.36,0003.73,0002.39
2024-05-01 05:11:00,SystemResetWarning,0827.4,5.00,000.00,025.8,025.0,000.0,034.3,027.6,011.7,0000.0,0009.07,0003.71,0002.38
2024-05-01 05:12:00,SystemResetWarning,0827.3,5.00,000.00,025.8,025.0,000.0,034.3,027.6,011.7,0000.0,0009.12,0003.70,0002.37
2024-05-01 05:13:00,SystemResetWarning,0827.3,5.00,000.00,025.8,025.0,000.0,034.3,027.6,012.0,0000.0,0009.50,0003.69,0002.34
2024-05-01 05:14:00,SystemResetWarning,0827.4,5.00,000.00,025.8,025.0,000.0,034.3,027.6,012.1,0000.0,0009.58,0003.67,0002.32
2024-05-01 05:15:00,SystemResetWarning,0827.4,5.00,000.00,025.8,025.0,000.0,034.3,027.6,012.1,0000.0,0009.54,0003.67,0002.28
2024-05-01 05:16:00,SystemResetWarning,0827.4,4.99,000.00,025.7,024.9,000.0,034.3,027.6,012.1,0000.0,0009.81,0003.67,0002.26
2024-05-01 05:17:00,SystemResetWarning,0827.4,5.00,000.00,025.8,024.9,000.0,034.3,027.6,012.3,0000.0,0010.27,0003.69,0002.25
2024-05-01 05:18:00,SystemResetWarning,0827.3,5.00,000.00,025.8,024.9,000.0,034.3,027.6,012.4,0000.0,0010.36,0003.68,0002.25
2024-05-01 05:19:00,SystemResetWarning,0827.4,5.01,000.00,025.8,024.9,000.0,034.3,027.6,012.7,0000.0,0010.67,0003.72,0002.26
2024-05-01 05:20:00,SystemResetWarning,0827.3,5.01,000.00,025.8,024.9,000.0,034.3,027.6,012.7,0000.0,0010.53,0003.77,0002.26
2024-05-01 05:21:00,SystemResetWarning,0827.3,5.00,000.00,025.8,025.0,000.0,034.3,027.6,012.6,0000.0,0010.60,0003.80,0002.27
2024-05-01 05:22:00,SystemResetWarning,0827.3,5.00,000.00,025.8,025.0,000.0,034.3,027.6,012.7,0000.0,0010.98,0003.81,0002.28
2024-05-01 05:23:00,SystemResetWarning,0827.3,4.99,000.00,025.8,025.0,000.0,034.3,027.6,012.9,0000.0,0011.73,0003.80,0002.28
2024-05-01 05:24:00,SystemResetWarning,0827.4,4.99,000.00,025.8,025.0,000.0,034.3,027.6,013.0,0000.0,0014.15,0003.81,0002.28
2024-05-01 05:25:00,SystemResetWarning,0827.4,5.00,000.00,025.8,025.0,000.0,034.3,027.6,012.9,0000.0,0014.00,0003.85,0002.28
2024-05-01 05:26:00,SystemResetWarning,0827.3,5.01,000.00,025.8,025.0,000.0,034.3,027.6,013.0,0000.0,0014.14,0003.86,0002.30
2024-05-01 05:27:00,SystemResetWarning,0827.3,5.01,000.00,025.8,025.0,000.0,034.3,027.6,012.9,0000.0,0014.02,0003.81,0002.31
2024-05-01 05:28:00,SystemResetWarning,0827.4,5.01,000.00,025.8,025.0,000.0,034.3,027.6,012.9,0000.0,0013.46,0003.80,0002.29
2024-05-01 05:29:00,SystemResetWarning,0827.3,5.00,000.00,025.8,025.0,000.0,034.3,027.6,013.0,0000.0,0013.34,0003.80,0002.28
2024-05-01 05:30:00,SystemResetWarning,0827.2,5.00,000.00,025.8,025.0,000.0,034.3,027.6,012.9,0000.0,0013.60,0003.80,0002.28
2024-05-01 05:31:00,SystemResetWarning,0827.2,5.00,000.00,025.8,025.0,000.0,034.3,027.6,013.0,0000.0,0014.00,0003.82,0002.29
2024-05-01 05:32:00,SystemResetWarning,0827.2,5.00,000.00,025.8,025.0,000.0,034.3,027.6,012.9,0000.0,0013.61,0003.81,0002.30
2024-05-01 05:33:00,SystemResetWarning,0827.1,5.00,000.00,025.8,025.0,000.0,034.3,027.6,012.7,0000.0,0013.67,0003.84,0002.29
2024-05-01 05:34:00,SystemResetWarning,0827.2,5.00,000.00,025.8,024.9,000.0,034.3,027.6,013.0,0000.0,0013.36,0003.85,0002.29
2024-05-01 05:35:00,SystemResetWarning,0827.2,5.00,000.00,025.8,024.9,000.0,034.3,027.6,012.5,0000.0,0010.74,0003.84,0002.29
2024-05-01 05:36:00,SystemResetWarning,0827.2,4.99,000.00,025.7,024.9,000.0,034.3,027.6,013.0,0000.0,0010.20,0003.79,0002.29
2024-05-01 05:37:00,SystemResetWarning,0827.2,5.01,000.00,025.7,024.9,000.0,034.3,027.5,013.0,0000.0,0010.33,0003.80,0002.27
2024-05-01 05:38:00,SystemResetWarning,0827.2,5.00,000.00,025.7,024.9,000.0,034.3,027.6,012.8,0000.0,0010.49,0003.80,0002.25
2024-05-01 05:39:00,SystemResetWarning,0827.2,5.00,000.00,025.7,024.9,000.0,034.3,027.5,012.4,0000.0,0010.73,0003.76,0002.24
2024-05-01 05:40:00,SystemResetWarning,0827.2,5.00,000.00,025.7,024.9,000.0,034.3,027.5,012.2,0000.0,0010.76,0003.71,0002.22
2024-05-01 05:41:00,SystemResetWarning,0827.1,5.00,000.00,025.7,024.8,000.0,034.3,027.5,011.6,0000.0,0010.47,0003.68,0002.20
2024-05-01 05:42:00,SystemResetWarning,0827.1,5.00,000.00,025.7,024.8,000.0,034.3,027.5,011.8,0000.0,0009.89,0003.65,0002.17
2024-05-01 05:43:00,SystemResetWarning,0827.1,5.00,000.00,025.7,024.8,000.0,034.3,027.4,011.5,0000.0,0010.13,0003.63,0002.13
2024-05-01 05:44:00,SystemResetWarning,0827.2,5.00,000.00,025.7,024.8,000.0,034.2,027.4,011.8,0000.0,0010.45,0003.58,0002.12
2024-05-01 05:45:00,SystemResetWarning,0827.2,5.00,000.00,025.6,024.8,000.0,034.2,027.4,011.8,0000.0,0010.22,0003.51,0002.09
2024-05-01 05:46:00,SystemResetWarning,0827.2,5.00,000.00,025.6,024.8,000.0,034.2,027.4,011.8,0000.0,0010.17,0003.45,0002.07
2024-05-01 05:47:00,SystemResetWarning,0827.2,5.00,000.00,025.6,024.8,000.0,034.2,027.4,012.0,0000.0,0010.12,0003.46,0002.06
2024-05-01 05:48:00,SystemResetWarning,0827.2,5.00,000.00,025.6,024.8,000.0,034.2,027.4,012.1,0000.0,0010.49,0003.45,0002.03
2024-05-01 05:49:00,SystemResetWarning,0827.1,5.00,000.00,025.6,024.8,000.0,034.2,027.5,012.2,0000.0,0010.23,0003.41,0002.01
2024-05-01 05:50:00,SystemResetWarning,0827.1,5.00,000.00,025.6,024.8,000.0,034.2,027.4,012.2,0000.0,0010.19,0003.46,0002.00
2024-05-01 05:51:00,SystemResetWarning,0827.0,5.00,000.00,025.6,024.8,000.0,034.2,027.4,012.3,0000.0,0011.65,0003.49,0002.02
2024-05-01 05:52:00,SystemResetWarning,0827.0,5.01,000.00,025.6,024.8,000.0,034.2,027.4,012.3,0000.0,0012.78,0003.52,0002.02
2024-05-01 05:53:00,SystemResetWarning,0827.0,5.00,000.00,025.6,024.8,000.0,034.2,027.4,012.5,0000.0,0012.63,0003.48,0002.01
2024-05-01 05:54:00,SystemResetWarning,0827.1,5.00,000.00,025.6,024.8,000.0,034.2,027.4,012.4,0000.0,0012.37,0003.46,0002.01
2024-05-01 05:55:00,SystemResetWarning,0827.1,5.00,000.00,025.6,024.7,000.0,034.2,027.4,012.4,0000.0,0011.43,0003.46,0002.01
2024-05-01 05:56:00,SystemResetWarning,0827.2,5.00,000.00,025.6,024.7,000.0,034.2,027.4,012.6,0000.0,0011.89,0003.51,0002.01
2024-05-01 05:57:00,SystemResetWarning,0827.2,5.00,000.00,025.6,024.8,000.0,034.2,027.4,012.6,0000.0,0012.11,0003.55,0002.03
2024-05-01 05:58:00,SystemResetWarning,0827.1,5.01,000.00,025.6,024.7,000.0,034.2,027.4,012.6,0000.0,0013.15,0003.57,0002.02
2024-05-01 05:59:00,SystemResetWarning,0827.1,5.01,000.00,025.6,024.7,000.0,034.2,027.4,012.6,0000.0,0013.19,0003.60,0002.03
